Погода в Йонагуни

Япония     24°27′15″N   122°59′19″E
темп.,
°C
ветер,
м/с
пор.,
м/с
влажн.,
%
обл.,
%
осадки,
мм/ч
давл.,
гПа
погр.,
м
13 мая, чт
чт1300:00+27ю911895 0.4 1011434
03:00+27ю1012895 0.6 1009678
06:00+27ю8118994 0.1 1010700
09:00+27ю91288100 0.1 1011683
12:00+27ююз711855 0.0 1011579
15:00+27ю710885 0.0 1009598
18:00+27ю799075 0.0 1009653
21:00+27ю7109169 0.0 1011669
14 мая, пт
пт1400:00+27ю81185100 0.0 1011490
03:00+27ю91184100 0.1 1010482
06:00+27ю8109096 0.0 1011679
09:00+27ю810866 0.0 1012603
12:00+27ю8108812 0.0 1011650
15:00+27ю79895 0.0 1010636
18:00+27ю689019 0.1 1009592
21:00+27ю79915 0.1 1011484
15 мая, сб
сб1500:00+27ю7109139 0.0 1012494
03:00+27ю811871 0.1 1010464
06:00+27ю811905 0.0 1010587
09:00+27ю8119012 0.0 1012656
12:00+27ю811905 0.0 1011667
15:00+28ю7118982 0.0 1010544
18:00+27ю7109093 0.0 1009569
21:00+27ю71091100 0.0 1010527
16 мая, вс
вс1600:00+27ю81292100 0.0 1011654
03:00+27ю912910 0.0 1009783
06:00+27ю912900 0.1 1010814
09:00+27ю912900 0.2 1011665
12:00+27ю811870 0.0 1011672
15:00+27ю811890 0.0 1009726
18:00+27ю8118867 0.0 1009597
21:00+27ю81090100 0.0 1010516
17 мая, пн
пн1700:00+27ю91290100 0.0 1010699
03:00+27ю81190100 0.0 1009785
06:00+27ю81089100 0.0 1010726
09:00+27ю8108663 0.0 1011541
12:00+28ю798534 0.1 1011377
15:00+27ю688899 0.1 1010600
18:00+28ю578966 0.0 1010576
21:00+27ю579047 0.0 1011408